TimeMST,TemperatureF,Dew PointF,Humidity,Sea Level PressureIn,VisibilityMPH,Wind Direction,Wind SpeedMPH,Gust SpeedMPH,PrecipitationIn,Events,Conditions,WindDirDegrees,DateUTC
12:15 AM,15.8,10.4,79,30.23,0.2,Calm,Calm,-,N/A,,Overcast,0,2013-01-09 07:15:00
12:35 AM,12.2,8.6,85,30.23,0.2,Calm,Calm,-,N/A,,Overcast,0,2013-01-09 07:35:00
12:55 AM,10.4,5.0,79,30.23,0.2,WNW,4.6,-,N/A,,Overcast,300,2013-01-09 07:55:00
1:15 AM,14.0,10.4,86,30.22,0.2,West,4.6,-,N/A,,Overcast,270,2013-01-09 08:15:00
1:35 AM,15.8,8.6,73,30.21,0.2,West,3.5,-,N/A,,Overcast,280,2013-01-09 08:35:00
1:55 AM,15.8,10.4,79,30.21,0.2,NW,4.6,-,N/A,,Overcast,320,2013-01-09 08:55:00
2:15 AM,14.0,8.6,79,30.21,0.2,Calm,Calm,-,N/A,,Overcast,0,2013-01-09 09:15:00
2:35 AM,15.8,8.6,73,30.19,0.2,East,3.5,-,N/A,,Overcast,90,2013-01-09 09:35:00
2:55 AM,15.8,8.6,73,30.20,0.2,WSW,4.6,-,N/A,,Overcast,240,2013-01-09 09:55:00
3:15 AM,15.8,10.4,79,30.19,1.0,South,4.6,-,N/A,,Overcast,180,2013-01-09 10:15:00
3:35 AM,15.8,10.4,79,30.18,0.5,SW,3.5,-,N/A,,Overcast,230,2013-01-09 10:35:00
3:55 AM,15.8,10.4,79,30.15,0.2,Calm,Calm,-,N/A,,Overcast,0,2013-01-09 10:55:00
4:15 AM,15.8,10.4,79,30.15,0.2,Calm,Calm,-,N/A,,Overcast,0,2013-01-09 11:15:00
4:35 AM,17.6,10.4,73,30.14,0.2,Calm,Calm,-,N/A,,Overcast,0,2013-01-09 11:35:00
4:55 AM,17.6,10.4,73,30.11,0.2,Calm,Calm,-,N/A,,Overcast,0,2013-01-09 11:55:00
5:15 AM,15.8,10.4,79,30.11,0.2,Calm,Calm,-,N/A,,Overcast,0,2013-01-09 12:15:00
5:35 AM,17.6,10.4,73,30.10,0.2,Calm,Calm,-,N/A,,Overcast,0,2013-01-09 12:35:00
5:55 AM,17.6,10.4,73,30.10,0.5,North,3.5,-,N/A,,Overcast,360,2013-01-09 12:55:00
6:15 AM,17.6,10.4,73,30.08,0.8,NE,5.8,-,N/A,,Overcast,50,2013-01-09 13:15:00
6:35 AM,17.6,10.4,73,30.08,1.2,Calm,Calm,-,N/A,,Overcast,0,2013-01-09 13:35:00
6:55 AM,17.6,10.4,73,30.06,1.8,ESE,5.8,-,N/A,,Overcast,110,2013-01-09 13:55:00
7:15 AM,17.6,10.4,73,30.05,1.8,NNW,4.6,-,N/A,,Overcast,340,2013-01-09 14:15:00
7:35 AM,17.6,12.2,79,30.05,2.0,Calm,Calm,-,N/A,,Overcast,0,2013-01-09 14:35:00
7:55 AM,17.6,12.2,79,30.02,2.0,East,3.5,-,N/A,,Overcast,80,2013-01-09 14:55:00
8:15 AM,19.4,14.0,80,30.02,1.5,Calm,Calm,-,N/A,,Overcast,0,2013-01-09 15:15:00
8:35 AM,21.2,15.8,80,30.02,1.5,East,5.8,-,N/A,,Overcast,90,2013-01-09 15:35:00
8:55 AM,21.2,17.6,86,30.02,1.5,NW,3.5,-,N/A,,Overcast,320,2013-01-09 15:55:00
9:15 AM,23.0,17.6,80,30.01,1.2,NE,3.5,-,N/A,,Overcast,40,2013-01-09 16:15:00
9:35 AM,23.0,17.6,80,30.01,1.5,NW,4.6,-,N/A,,Overcast,320,2013-01-09 16:35:00
9:55 AM,24.8,19.4,80,30.01,1.5,NNW,5.8,-,N/A,,Overcast,340,2013-01-09 16:55:00
10:15 AM,23.0,19.4,86,29.99,1.5,NW,4.6,-,N/A,,Overcast,320,2013-01-09 17:15:00
10:55 AM,30.2,26.6,86,29.97,7.0,SSE,17.3,20.7,N/A,,Partly Cloudy,160,2013-01-09 17:55:00
11:15 AM,35.6,30.2,81,29.96,10.0,South,18.4,-,0.01,,Clear,170,2013-01-09 18:15:00
11:35 AM,35.6,28.4,75,29.93,10.0,South,18.4,25.3,0.01,,Clear,170,2013-01-09 18:35:00
11:55 AM,37.4,28.4,70,29.93,10.0,South,20.7,-,0.01,,Clear,170,2013-01-09 18:55:00
12:15 PM,37.4,28.4,70,29.92,10.0,South,15.0,-,N/A,,Clear,170,2013-01-09 19:15:00
12:35 PM,37.4,26.6,65,29.91,10.0,South,13.8,-,N/A,,Clear,170,2013-01-09 19:35:00
12:55 PM,39.2,26.6,61,29.90,10.0,SSE,18.4,-,N/A,,Clear,160,2013-01-09 19:55:00
1:15 PM,37.4,26.6,65,29.89,10.0,SSE,21.9,-,N/A,,Clear,160,2013-01-09 20:15:00
1:35 PM,37.4,26.6,65,29.88,10.0,South,20.7,-,N/A,,Clear,170,2013-01-09 20:35:00
1:55 PM,39.2,26.6,61,29.86,10.0,SSE,17.3,-,N/A,,Clear,160,2013-01-09 20:55:00
2:15 PM,39.2,26.6,61,29.86,10.0,SSE,18.4,-,N/A,,Clear,160,2013-01-09 21:15:00
2:35 PM,39.2,26.6,61,29.85,10.0,SSE,13.8,21.9,N/A,,Clear,160,2013-01-09 21:35:00
2:55 PM,39.2,26.6,61,29.84,10.0,South,12.7,-,N/A,,Clear,170,2013-01-09 21:55:00
3:15 PM,39.2,26.6,61,29.83,10.0,SSE,16.1,19.6,N/A,,Clear,160,2013-01-09 22:15:00
3:35 PM,39.2,26.6,61,29.82,10.0,SSE,16.1,-,N/A,,Clear,160,2013-01-09 22:35:00
3:55 PM,39.2,28.4,65,29.82,10.0,South,13.8,-,N/A,,Clear,170,2013-01-09 22:55:00
4:15 PM,39.2,26.6,61,29.81,10.0,South,20.7,24.2,N/A,,Clear,170,2013-01-09 23:15:00
4:35 PM,39.2,26.6,61,29.80,10.0,South,20.7,-,N/A,,Clear,180,2013-01-09 23:35:00
4:55 PM,39.2,26.6,61,29.79,10.0,South,23.0,27.6,N/A,,Clear,170,2013-01-09 23:55:00
5:15 PM,39.2,26.6,61,29.77,10.0,South,23.0,-,N/A,,Clear,170,2013-01-10 00:15:00
5:35 PM,39.2,26.6,61,29.75,10.0,South,18.4,25.3,N/A,,Clear,170,2013-01-10 00:35:00
5:55 PM,39.2,26.6,61,29.76,10.0,South,19.6,25.3,N/A,,Clear,170,2013-01-10 00:55:00
6:15 PM,39.2,26.6,61,29.75,10.0,South,16.1,-,N/A,,Clear,180,2013-01-10 01:15:00
6:35 PM,39.2,26.6,61,29.74,10.0,South,12.7,-,N/A,,Clear,180,2013-01-10 01:35:00
6:55 PM,39.2,28.4,65,29.75,10.0,North,3.5,-,N/A,,Clear,10,2013-01-10 01:55:00
7:35 PM,39.2,28.4,65,29.75,10.0,SSW,5.8,-,N/A,,Mostly Cloudy,200,2013-01-10 02:35:00
7:55 PM,39.2,28.4,65,29.75,10.0,South,5.8,-,N/A,,Overcast,170,2013-01-10 02:55:00
8:15 PM,39.2,26.6,61,29.72,10.0,SSE,11.5,-,N/A,,Overcast,150,2013-01-10 03:15:00
8:35 PM,37.4,28.4,70,29.73,10.0,SSW,8.1,-,N/A,,Overcast,200,2013-01-10 03:35:00
8:55 PM,37.4,26.6,65,29.72,10.0,SSE,6.9,-,N/A,,Overcast,160,2013-01-10 03:55:00
9:15 PM,35.6,28.4,75,29.72,10.0,West,6.9,-,N/A,,Overcast,270,2013-01-10 04:15:00
9:35 PM,35.6,28.4,75,29.70,10.0,NNW,3.5,-,N/A,,Overcast,340,2013-01-10 04:35:00
9:55 PM,35.6,26.6,70,29.70,9.0,WNW,5.8,-,N/A,,Scattered Clouds,300,2013-01-10 04:55:00
10:15 PM,33.8,26.6,75,29.70,5.0,West,9.2,-,N/A,,Mostly Cloudy,280,2013-01-10 05:15:00
10:35 PM,32.0,26.6,80,29.71,4.0,West,11.5,-,N/A,,Overcast,280,2013-01-10 05:35:00
10:55 PM,32.0,26.6,80,29.71,4.0,WNW,11.5,-,N/A,,Overcast,290,2013-01-10 05:55:00
11:15 PM,33.8,28.4,81,29.71,4.0,NW,13.8,-,N/A,,Overcast,310,2013-01-10 06:15:00
11:35 PM,33.8,28.4,81,29.71,5.0,WNW,15.0,-,N/A,,Overcast,300,2013-01-10 06:35:00
11:55 PM,33.8,28.4,81,29.71,6.0,WNW,15.0,-,N/A,,Overcast,300,2013-01-10 06:55:00